Theta_e
304 305 307 307 308 311 309 307 297 309 310 296 295 290 293 297 297 299 296 293 291 291 291 288 287 287 289 295 295 290 292 289 284 287 289 288 288 287 286 282 281 280 281 284
301 302 304 305 306 305 306 300 301 308 308 292 292 290 293 296 295 295 295 293 294 293 289 286 289 290 295 296 294 290 291 285 280 283 286 284 284 286 289 289 286 283 280 283
299 300 301 302 303 304 300 298 292 297 300 302 296 295 291 291 297 295 296 295 295 291 290 292 289 290 293 296 295 296 295 287 284 280 284 287 285 286 287 286 282 283 283 285
298 298 298 299 301 301 298 296 292 297 289 290 293 295 294 292 291 296 297 293 293 290 288 289 287 289 291 294 295 292 290 283 285 287 288 288 287 286 286 284 285 281 285 285
299 299 298 299 299 299 294 290 292 291 289 290 289 290 289 290 293 294 292 291 294 294 289 291 290 291 291 290 290 290 290 283 284 282 285 285 283 286 286 286 286 287 286 285
299 299 299 299 299 298 292 295 294 289 286 287 286 287 289 290 292 293 296 295 294 292 294 296 297 298 298 296 292 288 286 284 282 279 284 283 280 284 285 286 288 287 283 288
298 298 298 298 299 298 295 292 290 285 279 283 283 286 287 285 287 287 289 289 288 293 297 297 295 295 294 294 294 294 285 284 284 282 283 274 284 291 290 287 289 290 290 291
297 297 298 298 298 298 294 294 290 284 277 281 282 282 282 284 285 285 285 289 292 296 292 286 284 285 285 288 290 291 293 288 283 280 279 283 285 288 287 286 286 291 291 292
297 297 297 298 298 298 295 293 294 287 279 277 283 281 282 278 279 281 285 289 289 290 288 284 279 278 283 283 284 289 291 291 285 283 278 276 285 291 294 291 281 292 293 292
297 297 297 297 297 298 295 292 294 288 280 283 282 278 278 283 281 279 279 278 279 286 282 279 279 279 285 280 281 282 283 284 281 282 280 283 289 291 290 280 283 293 294 293
297 297 297 297 297 297 294 291 294 288 283 283 285 285 280 280 281 277 276 276 275 279 276 276 278 279 282 279 278 281 282 281 281 282 279 277 287 289 284 285 290 291 291 290
296 296 297 297 297 297 296 288 294 294 286 284 288 289 289 287 286 282 276 276 272 277 272 275 276 272 274 274 272 282 276 278 275 277 277 284 286 284 288 289 289 287 287 288
296 296 296 297 297 297 295 290 291 290 284 283 283 283 287 290 289 289 279 278 282 277 280 276 276 268 272 267 272 274 277 281 276 276 281 281 283 286 289 289 287 288 289 289
295 295 296 296 297 297 296 289 291 289 284 278 279 289 285 290 289 288 287 284 284 283 278 271 270 268 275 269 273 272 275 276 274 273 276 278 280 282 284 285 285 284 284 283
295 295 296 296 296 296 294 291 291 291 284 277 279 283 285 286 286 285 285 284 281 279 276 275 270 275 274 275 274 272 276 274 271 270 277 278 278 281 282 280 279 278 279 280
295 295 295 295 296 295 290 281 289 291 290 280 275 282 280 284 285 284 283 282 281 280 277 274 276 279 276 270 268 275 277 279 279 276 273 273 277 280 278 274 274 276 277 278
294 294 295 295 295 292 285 280 286 292 291 281 276 275 277 281 282 279 279 282 280 279 278 276 276 276 277 273 268 275 277 277 271 274 270 272 273 270 272 272 273 272 273 274
293 294 294 295 295 293 287 290 293 292 285 283 274 271 270 278 274 273 279 275 277 277 276 270 272 273 274 270 274 275 269 267 269 267 267 267 268 269 269 269 268 266 267 268
293 293 294 290 288 284 284 293 293 291 284 276 275 266 266 275 274 278 278 278 267 275 271 273 271 269 268 267 268 264 264 263 263 264 264 265 264 264 265 264 263 263 263 264
292 288 284 279 285 291 291 285 279 281 281 280 274 278 272 277 276 274 272 272 266 260 268 273 267 269 270 264 263 263 262 262 262 258 257 258 258 260 261 260 261 262 262 262
284 279 277 285 290 285 280 274 274 270 267 271 271 273 270 277 270 269 275 267 266 259 264 264 258 260 263 261 260 261 261 261 260 260 260 261 260 258 258 258 258 259 259 258
283 281 284 284 278 275 271 271 266 265 264 267 267 268 270 271 275 268 268 263 264 261 263 261 257 264 257 257 257 258 259 258 258 259 258 258 258 257 256 256 256 256 257 257
284 277 276 275 269 268 268 264 261 260 264 263 266 265 271 274 274 270 268 265 263 264 258 258 260 258 257 256 256 256 257 256 256 255 255 255 255 256 255 255 256 256 256 257
276 273 265 266 263 263 264 263 263 264 267 265 269 269 270 268 271 269 264 266 266 259 253 258 253 254 254 254 255 253 253 253 254 254 254 255 255 255 256 256 257 257 257 258
271 269 262 263 265 260 258 261 262 262 264 265 266 264 269 266 268 269 269 265 258 258 257 252 253 253 253 253 253 252 253 253 254 254 254 254 255 255 255 256 257 257 259 258
271 269 267 259 260 257 255 255 255 261 263 264 262 263 266 265 266 262 258 256 257 255 246 251 253 252 252 252 252 253 254 254 254 255 255 256 256 255 255 256 257 258 259 257
269 258 257 257 255 253 252 253 258 263 261 263 264 262 260 262 261 258 256 252 246 247 250 251 250 251 252 252 254 254 254 255 255 255 256 256 257 256 255 254 256 257 258 257
Wind_Speed
10 10 12 15 19 9 6 3 6 8 12 7 5 11 7 7 15 13 11 6 14 25 24 20 12 13 9 18 6 4 5 1 5 15 4 1 8 11 11 9 12 4 6 30
13 12 9 11 16 18 4 4 4 7 8 11 12 4 11 13 16 17 9 11 11 13 19 14 17 22 24 25 9 4 5 3 4 13 12 3 7 7 12 11 7 16 20 26
11 11 11 9 12 14 5 3 5 3 5 12 21 22 16 19 17 25 24 11 11 8 15 15 12 12 14 13 19 8 4 10 13 16 15 8 9 14 13 15 11 25 22 31
10 11 11 11 7 8 3 3 5 4 4 7 15 22 22 30 25 24 14 12 28 19 15 19 18 23 26 19 16 7 5 11 19 28 31 31 30 30 27 13 22 23 27 25
12 11 11 9 9 3 2 4 4 4 4 7 9 7 13 25 27 23 22 29 23 27 27 27 22 20 18 19 5 19 15 10 17 23 28 28 30 27 27 34 34 30 30 32
14 13 11 10 9 1 1 3 2 1 5 9 10 13 6 6 13 11 24 28 24 28 29 28 30 28 26 19 13 11 8 9 9 15 22 24 20 35 36 34 31 35 31 42
13 13 11 10 11 6 1 2 1 4 12 10 15 14 15 18 17 14 11 15 15 8 20 24 16 17 23 27 24 16 12 16 12 15 11 22 21 21 28 37 37 35 33 35
14 13 12 12 13 13 4 3 3 3 8 9 15 14 15 18 18 19 17 20 15 11 11 9 12 8 6 15 27 27 23 21 14 14 18 22 7 20 24 26 36 33 25 29
17 16 13 14 14 15 7 5 4 3 4 7 12 12 7 13 12 15 13 7 9 5 7 8 18 14 13 7 5 22 28 25 23 18 16 19 16 26 28 20 18 15 21 26
16 17 18 17 16 16 10 4 7 4 6 9 9 7 6 6 9 8 4 5 7 3 4 12 16 21 19 15 20 8 8 16 25 22 20 16 8 10 4 15 17 19 21 21
18 19 19 19 18 17 11 6 8 6 5 10 11 12 13 7 5 8 6 7 3 5 10 12 13 11 8 7 7 12 13 14 14 15 18 21 15 9 11 15 21 17 17 20
20 19 20 21 21 20 15 9 6 8 7 5 4 7 14 17 20 11 2 4 3 4 4 6 6 11 10 12 9 4 6 4 7 5 8 11 8 10 15 16 10 17 20 22
22 24 23 22 23 22 16 8 5 3 6 11 12 13 18 14 15 8 6 4 6 4 5 5 4 5 4 7 7 12 11 22 14 14 6 25 29 26 13 10 14 12 14 17
24 24 25 23 23 23 18 7 6 5 4 5 7 6 9 11 12 14 16 17 10 9 2 2 4 5 4 5 10 14 14 21 18 25 21 23 19 16 20 13 14 16 16 15
25 24 25 25 23 22 15 6 5 8 8 5 6 2 6 6 7 12 13 14 13 8 7 6 5 5 7 9 13 14 14 17 16 22 23 22 25 24 22 17 17 16 17 20
24 25 24 23 23 19 6 4 7 11 9 6 5 3 8 14 18 19 17 12 10 8 5 5 6 17 10 8 12 16 18 21 20 22 13 16 19 15 7 13 18 17 16 18
24 21 22 23 22 11 6 4 4 2 7 5 5 4 2 5 7 3 4 9 7 8 9 8 13 13 14 13 17 24 23 17 14 12 15 14 11 12 22 20 19 19 20 18
18 20 21 20 19 15 10 10 17 6 2 3 4 5 1 5 4 3 5 4 4 4 6 2 6 6 6 10 19 15 11 14 9 14 13 15 20 19 18 18 18 21 21 21
17 18 17 5 3 4 4 8 13 6 4 4 3 5 5 1 2 1 1 3 2 3 5 8 2 5 8 4 3 6 9 9 15 19 16 14 15 21 22 20 20 19 23 22
10 1 1 4 3 1 7 2 2 2 3 3 3 2 2 5 5 4 2 2 4 2 7 0 5 12 4 7 6 6 10 10 12 15 17 17 20 18 26 25 21 20 21 24
2 3 3 0 5 3 2 4 4 2 2 3 5 6 5 2 4 5 3 3 3 3 8 6 4 4 4 5 7 9 9 11 11 13 18 19 19 21 24 26 22 21 21 22
4 4 4 1 2 2 4 4 2 3 7 3 3 3 4 4 2 3 3 5 2 7 3 5 5 1 6 7 9 11 10 12 15 15 19 20 21 19 21 23 24 22 22 21
2 3 2 3 4 4 5 6 4 2 2 2 1 3 3 2 2 3 2 5 6 1 3 6 3 5 7 9 10 13 12 14 16 18 17 19 22 19 19 22 20 23 22 21
3 5 5 5 4 5 5 4 2 1 2 3 2 2 2 2 2 3 4 7 2 2 3 7 3 8 11 10 10 12 17 16 18 19 18 20 20 19 19 19 18 19 20 21
4 4 5 6 3 4 2 1 3 2 2 2 1 2 2 3 4 4 3 3 6 7 6 3 6 11 11 14 13 14 16 16 17 18 18 19 19 18 18 17 17 18 14 14
3 2 3 0 3 0 3 3 2 3 3 2 1 3 2 5 3 2 7 2 6 1 2 5 9 12 13 14 15 16 16 17 17 17 18 18 17 17 17 16 14 13 12 10
5 1 3 2 4 2 2 2 2 4 2 2 2 5 8 2 3 4 4 2 2 3 7 4 6 11 15 15 15 16 16 17 17 16 17 16 15 14 13 14 14 12 9 8
Wind_Direction
324 353 359 2 5 313 256 227 247 143 143 191 219 216 212 232 255 234 249 238 252 250 263 271 285 287 294 329 352 197 205 230 248 233 180 236 215 224 183 216 237 233 231 265
349 348 338 355 5 11 311 232 254 192 172 227 225 239 239 240 246 242 204 230 223 241 247 256 251 262 266 288 282 293 342 355 327 305 290 192 201 210 230 245 259 241 242 261
328 338 344 346 351 360 340 286 258 221 255 228 231 236 228 236 238 252 248 247 227 230 238 236 258 243 251 243 258 87 135 221 218 236 240 261 267 237 235 225 240 248 245 259
301 308 314 329 349 353 327 216 249 237 226 257 280 262 250 246 244 228 226 222 235 223 242 238 227 240 253 255 248 148 188 223 224 234 243 253 256 264 271 261 243 244 267 259
303 306 311 313 317 350 244 291 307 9 319 297 277 277 251 271 258 251 234 231 232 225 230 230 241 228 232 237 240 213 177 226 214 231 238 247 255 259 261 253 252 253 254 269
298 296 304 302 310 165 224 18 359 297 251 276 286 264 272 284 302 287 278 265 250 235 233 234 238 248 252 259 231 214 193 209 206 234 229 241 246 238 245 253 247 242 246 244
293 295 295 291 281 245 229 194 128 272 270 268 261 281 292 301 304 293 288 298 293 321 320 313 308 282 256 252 242 203 204 214 226 252 233 230 230 246 234 238 242 246 243 247
276 277 280 279 273 276 235 219 197 213 272 273 276 280 295 299 291 281 279 281 271 305 317 301 283 257 256 238 232 232 224 230 243 245 238 260 246 228 224 224 238 244 259 245
271 268 269 267 270 268 271 234 210 212 275 245 299 276 310 307 297 291 269 6 338 279 269 254 259 259 260 248 273 226 229 226 234 234 246 251 245 239 247 247 252 247 229 241
275 279 273 260 254 258 261 240 223 220 246 254 241 250 288 286 288 291 309 341 330 268 255 262 266 265 263 257 265 254 213 233 235 232 245 251 234 274 350 242 269 256 260 261
277 275 277 273 262 260 253 253 220 219 257 256 256 261 255 251 248 278 305 331 286 268 252 263 283 284 280 297 348 318 269 239 224 233 236 245 2 320 261 345 328 1 7 356
272 277 276 268 273 256 252 258 240 230 237 274 287 252 253 244 249 262 216 236 320 290 327 323 332 314 299 295 281 328 265 2 302 331 325 320 316 310 297 296 325 329 314 310
278 280 274 272 265 266 248 246 239 236 246 264 244 237 240 243 240 228 247 242 223 230 216 270 267 276 8 309 297 316 297 302 296 318 312 312 307 303 289 296 301 322 340 327
275 277 275 274 267 256 255 242 229 215 258 269 259 219 224 231 219 219 224 239 250 253 153 220 250 254 223 255 281 285 286 303 293 285 288 294 281 300 305 299 313 310 303 293
276 274 272 270 265 258 255 248 226 215 221 287 290 191 244 237 221 224 224 233 239 238 245 236 237 251 263 256 264 264 271 272 281 282 291 288 300 320 327 334 335 335 323 313
274 272 275 269 264 256 254 241 217 209 193 248 259 245 210 229 225 232 239 226 229 222 222 231 228 238 244 257 256 261 269 269 282 294 346 311 300 306 356 328 313 306 304 298
272 277 276 270 262 242 214 198 160 147 186 238 227 236 315 240 219 218 223 228 219 213 232 230 242 252 254 263 269 272 272 298 332 348 356 312 339 312 311 308 311 311 302 295
274 281 273 266 256 253 233 232 248 195 198 216 241 260 45 175 188 223 182 201 185 218 219 287 233 269 248 257 259 292 7 337 313 352 339 303 297 299 306 312 313 314 306 309
271 284 282 291 242 216 223 199 226 200 205 246 208 183 243 90 286 314 325 181 236 227 208 238 152 234 234 237 320 8 4 346 313 316 314 302 310 305 304 310 311 306 301 306
267 88 155 219 182 133 115 80 141 182 217 226 261 67 244 172 201 214 179 188 202 217 237 235 197 242 67 75 50 356 339 328 329 325 325 323 307 309 307 305 303 298 297 302
140 186 206 69 201 167 183 204 188 187 252 225 234 193 216 260 183 210 213 195 223 212 248 162 249 259 105 54 18 347 329 318 309 295 289 294 293 300 300 299 298 299 297 293
139 134 88 83 196 218 213 186 66 194 217 253 174 214 178 274 100 121 262 195 182 239 210 96 254 51 66 11 331 319 310 308 300 298 294 293 291 291 289 292 296 297 295 294
73 81 163 190 252 248 223 173 253 219 216 242 359 305 200 216 184 216 222 227 230 58 82 221 231 64 6 338 324 316 314 305 300 298 292 290 288 287 286 287 288 291 292 292
151 165 211 189 227 239 195 184 165 54 1 15 358 279 236 236 222 229 232 238 33 262 228 234 47 352 326 321 318 315 312 307 302 300 300 299 297 297 294 292 294 293 292 292
164 150 217 208 207 58 61 60 97 18 308 341 302 286 244 257 240 215 240 252 248 206 243 26 328 325 318 318 318 311 308 308 305 306 305 303 301 302 302 301 301 295 290 305
105 184 235 280 50 93 55 17 83 5 342 340 297 272 243 236 237 230 218 206 227 296 322 302 315 315 315 314 311 307 305 307 306 307 308 306 309 312 308 309 308 311 305 314
158 164 30 85 85 126 110 351 48 337 290 240 284 210 224 335 241 246 30 245 257 280 307 298 300 306 310 309 309 311 313 310 312 312 309 312 315 316 320 324 325 324 331 339